User: anonymous   Login
Location: Unspecified
(0.0000°N, 0.0000°E)
Time: 09:23:49
(UTC+00:00)
Language:

PRISMA - Orbit

View from above orbital plane
View from above orbital plane
View from above satellite
View from above satellite

Ground track
Ground track

The orbit data is extracted from the following two-line orbital elements,

1 36599U 10028B   17086.83897739 +.00000066 +00000-0 +25776-4 0  9992
2 36599 098.3917 293.9336 0054616 216.0178 143.7335 14.55910870358768
Epoch (UTC): 27 March 2017 20:08:07
Eccentricity: 0.0054616
inclination: 98.3917°
perigee height: 668 km
apogee height: 745 km
right ascension of ascending node: 293.9336°
argument of perigee: 216.0178°
revolutions per day: 14.55910870
mean anomaly at epoch: 143.7335°
orbit number at epoch: 35876

The dashed part of the orbit path shows where the satellite is in the earth's shadow,  

DLR